Regional Weather Roundup
Issued by NWS Green Bay, WI

Home | Current Version | Previous Version | Graphics & Text | Print | Product List | Glossary On
Versions: 1 2 3 4 5 6 7 8 9 10 11 12 13 14 15 16 17 18 19 20 21 22 23 24 25 26 27 28 29 30 31 32 33 34 35 36 37 38 39 40 41 42 43 44 45 46 47 48 49 50
000
ASUS43 KGRB 212110
RWRGRB

NORTH-CENTRAL AND NORTHEAST WISCONSIN REGIONAL WEATHER ROUNDUP
NATIONAL WEATHER SERVICE GREEN BAY WI
400 PM CDT THU AUG 21 2014

WIZ005-009-010>012-018-019-212200-
NORTH CENTRAL WISCONSIN

CITY           SKY/WX    TMP DP  RH WIND       PRES   REMARKS
IRONWOOD       CLOUDY    73  66  78 SE7       29.87F
MANITOWISH WTR CLOUDY    69  65  89 SE7       29.92F
ARBOR VITAE    CLOUDY    72  65  78 SE7       29.93S
EAGLE RIVER    CLOUDY    69  64  83 SE6       29.94S
LAND O LAKES   CLOUDY    69  64  83 S7        29.96S
RHINELANDER    CLOUDY    67  63  87 SE10      29.95R
PHILLIPS       CLOUDY    71  66  84 SE8       29.90F
ANTIGO         CLOUDY    65  64  97 SE12      29.96S FOG
TOMAHAWK       CLOUDY    69  64  83 SE7       29.94R
MERRILL        CLOUDY    67  65  94 SE9       29.94R
$$

WIZ013-073-212200-
NORTHEAST WISCONSIN

CITY           SKY/WX    TMP DP  RH WIND       PRES   REMARKS
IRON MOUNTAIN  CLOUDY    69  63  81 SE7       29.95S
MARINETTE      CLOUDY    68  63  83 E7        29.94S
OCONTO         CLOUDY    69  64  83 E3        29.94S
$$

WIZ017-030-035>037-045-212200-
CENTRAL WISCONSIN

CITY           SKY/WX    TMP DP  RH WIND       PRES   REMARKS
MEDFORD        CLOUDY    69  67  92 E9        29.91S
WAUSAU         CLOUDY    68  66  93 SE9       29.92S
MOSINEE        CLOUDY    70  70 100 E7        29.93S
MARSHFIELD     CLOUDY    78  68  71 SE7       29.90R
WISC RAPIDS    CLOUDY    79  69  71 VRB6      29.91R
STEVENS POINT  CLOUDY    71  66  86 E9        29.91F
WAUPACA        CLOUDY    75  71  85 NE6       29.91S
SHAWANO        CLOUDY    69  65  88 E6        29.95R
CLINTONVILLE   CLOUDY    70  64  83 SE7       29.93S
$$

WIZ038-039-048-051-212200-
FOX VALLEY

CITY           SKY/WX    TMP DP  RH WIND       PRES   REMARKS
NWS GREEN BAY  CLOUDY    68  64  87 SE6       29.94R
APPLETON       PTSUNNY   73  68  83 E6        29.93F
OSHKOSH        PTSUNNY   73  69  87 E9        29.90F
FOND DU LAC    PTSUNNY   77  69  76 MISG      29.90F
$$

WIZ022-050-052-212200-
EAST CENTRAL WISCONSIN

CITY           SKY/WX    TMP DP  RH WIND       PRES   REMARKS
STURGEON BAY   CLOUDY    66  61  82 E8        29.95S
MANITOWOC      CLOUDY    67  64  90 E7        29.94S
SHEBOYGAN      CLOUDY    69  66  90 E5        29.93R
$$

LMZ563-521-522-541>543-212200-
LAKESHORE

STATION/POSITION TIME  TEMP    WIND        PRES    VSBY  WAVE
                       AIR SEA DIR/SP/G                  HT/PER
                 (UTC) (F)     (DEG/KT/KT) (MB)    (MI)  (FT/S)
SHEBOYGAN LKSHOR 2100   67 68  100/  2/  2 1013.6R
KEWAUNEE LKSHORE 2100   65     100/  4/  7 1013.0S
NORTHPORT PIER   2100   66     100/  6/  8 1014.6S
N MID LAKE BUOY  2100   64 65   90/  6/  8 1014.5F         0
SISTER BAY LKSHO 2100   71     120/  9/ 11   N/A
STURGEON BAY CG  2100   65 64   90/  5     1015.8      6   1
CHAMBERS ISLAND  2100   70      80/  7/  8 1014.2F
MENOMINEE LKSHOR 2100   68      80/  5/  5 1014.7S
$$



USA.gov is the U.S. government's official web portal to all federal, state and local government web resources and services.